Change the Weather History Date:

Wednesday, May 16, 2012

  Actual Average (KBGD) Record (KBGD)
Temperature  
Mean Temperature 68 °F 68 °F  
Max Temperature 84 °F 81 °F 103 °F (1996)
Min Temperature 51 °F 55 °F 42 °F (2011)
Degree Days  
Heating Degree Days 0 2  
Month to date heating degree days 47  
Since 1 July heating degree days 3750  
Cooling Degree Days 2 5  
Month to date cooling degree days 57  
Year to date cooling degree days 101  
Growing Degree Days 18 (Base 50)    
Moisture  
Dew Point 35 °F    
Average Humidity 33    
Maximum Humidity 62    
Minimum Humidity 13    
Precipitation  
Precipitation 0.00 in 0.10 in 3.10 in (1951)
Month to date precipitation 1.11  
Year to date precipitation 5.27  
Snow  
Snow 0.00 in - T in (1982)
Month to date snowfall  
Since 1 July snowfall  
Snow Depth -    
Sea Level Pressure  
Sea Level Pressure 30.12 in    
Wind  
Wind Speed 11 mph (SSW)    
Max Wind Speed 21 mph    
Max Gust Speed 26 mph    
Visibility 10 miles    
Events      
T = Trace of Precipitation, MM = Missing Value Source: NWS Daily Summary

Daily Weather History Graph

Daily Weather History Graph

Search for Another Location

Airport or City:

Trip Planner

Search our weather history database for the weather conditions in past years. The results will help you decide how hot, cold, wet, or windy it might be!

Date:

Astronomy

May. 16, 2012 Rise Set
Actual Time 6:41 AM CDT 8:47 PM CDT
Civil Twilight 6:12 AM CDT 9:16 PM CDT
Nautical Twilight 5:38 AM CDT 9:51 PM CDT
Astronomical Twilight 5:00 AM CDT 10:29 PM CDT
Moon 4:05 AM CDT (5/16) 5:11 PM CDT (5/16)
Length of Visible Light 15h 03m
Length of Day
14h 06m
Waning Crescent, 16% of the Moon is Illuminated
May 16
Waning Crescent
May 20
New
May 28
First Quarter
Jun 4
Full
Jun 11
Last Quarter

Hourly Weather History & Observations

Time (CDT) Temp. Dew Point Humidity Pressure Visibility Wind Dir Wind Speed Gust Speed Precip Events Conditions
12:15 AM 60.8 °F 35.6 °F 39% 30.15 in 10.0 mi WSW 9.2 mph - N/A   Clear
12:35 AM 59.0 °F 37.4 °F 45% 30.15 in 10.0 mi WSW 9.2 mph - N/A   Clear
12:55 AM 57.2 °F 37.4 °F 48% 30.16 in 10.0 mi WSW 8.1 mph - N/A   Clear
1:15 AM 59.0 °F 37.4 °F 45% 30.16 in 10.0 mi WSW 10.4 mph - N/A   Clear
1:35 AM 59.0 °F 37.4 °F 45% 30.16 in 10.0 mi West 9.2 mph - N/A   Clear
1:55 AM 60.8 °F 37.4 °F 42% 30.16 in 10.0 mi West 10.4 mph - N/A   Clear
2:15 AM 59.0 °F 37.4 °F 45% 30.15 in 10.0 mi West 10.4 mph - N/A   Clear
2:35 AM 57.2 °F 37.4 °F 48% 30.15 in 10.0 mi West 8.1 mph - N/A   Clear
2:55 AM 55.4 °F 39.2 °F 54% 30.15 in 10.0 mi West 8.1 mph - N/A   Clear
3:15 AM 55.4 °F 39.2 °F 54% 30.14 in 10.0 mi West 10.4 mph - N/A   Clear
3:35 AM 55.4 °F 39.2 °F 54% 30.14 in 10.0 mi West 9.2 mph - N/A   Clear
3:55 AM 55.4 °F 41.0 °F 58% 30.14 in 10.0 mi West 8.1 mph - N/A   Clear
4:15 AM 53.6 °F 41.0 °F 62% 30.14 in 10.0 mi West 8.1 mph - N/A   Clear
4:35 AM 53.6 °F 41.0 °F 62% 30.14 in 10.0 mi West 8.1 mph - N/A   Clear
4:55 AM 51.8 °F 39.2 °F 62% 30.14 in 7.0 mi West 8.1 mph - N/A   Clear
5:15 AM 51.8 °F 39.2 °F 62% 30.14 in 10.0 mi West 8.1 mph - N/A   Clear
5:35 AM 51.8 °F 39.2 °F 62% 30.14 in 10.0 mi West 10.4 mph - N/A   Clear
5:55 AM 53.6 °F 39.2 °F 58% 30.15 in 10.0 mi West 11.5 mph - N/A   Clear
6:15 AM 53.6 °F 39.2 °F 58% 30.15 in 10.0 mi West 10.4 mph - N/A   Clear
6:35 AM 53.6 °F 39.2 °F 58% 30.15 in 10.0 mi West 10.4 mph - N/A   Clear
6:55 AM 51.8 °F 39.2 °F 62% 30.15 in 10.0 mi West 9.2 mph - N/A   Clear
7:15 AM 53.6 °F 39.2 °F 58% 30.15 in 10.0 mi West 11.5 mph - N/A   Clear
7:35 AM 55.4 °F 41.0 °F 58% 30.15 in 10.0 mi West 8.1 mph - N/A   Clear
7:55 AM 59.0 °F 41.0 °F 51% 30.15 in 10.0 mi West 8.1 mph - N/A   Clear
8:15 AM 60.8 °F 41.0 °F 48% 30.16 in 10.0 mi West 9.2 mph - N/A   Clear
8:35 AM 64.4 °F 41.0 °F 42% 30.16 in 10.0 mi West 10.4 mph - N/A   Clear
8:55 AM 66.2 °F 41.0 °F 40% 30.17 in 10.0 mi West 11.5 mph - N/A   Clear
9:15 AM 69.8 °F 41.0 °F 35% 30.17 in 10.0 mi West 11.5 mph - N/A   Clear
9:35 AM 71.6 °F 41.0 °F 33% 30.17 in 10.0 mi West 11.5 mph - N/A   Clear
9:55 AM 73.4 °F 39.2 °F 29% 30.18 in 10.0 mi West 11.5 mph - N/A   Clear
10:15 AM 75.2 °F 37.4 °F 25% 30.18 in 10.0 mi West 11.5 mph - N/A   Clear
10:35 AM 77.0 °F 35.6 °F 22% 30.18 in 10.0 mi West 13.8 mph - N/A   Clear
10:55 AM 78.8 °F 33.8 °F 20% 30.18 in 10.0 mi West 12.7 mph 18.4 mph N/A   Clear
11:15 AM 78.8 °F 33.8 °F 20% 30.17 in 10.0 mi WSW 11.5 mph 17.3 mph N/A   Clear
11:35 AM 78.8 °F 33.8 °F 20% 30.17 in 10.0 mi SW 8.1 mph - N/A   Clear
11:55 AM 80.6 °F 32.0 °F 17% 30.17 in 7.0 mi South 13.8 mph 20.7 mph N/A   Clear
12:15 PM 78.8 °F 32.0 °F 18% 30.17 in 10.0 mi SSW 11.5 mph 17.3 mph N/A   Clear
12:35 PM 80.6 °F 32.0 °F 17% 30.16 in 10.0 mi SSW 11.5 mph 18.4 mph N/A   Clear
12:55 PM 80.6 °F 30.2 °F 16% 30.15 in 10.0 mi SSE 6.9 mph 19.6 mph N/A   Clear
1:15 PM 80.6 °F 32.0 °F 17% 30.15 in 7.0 mi South 13.8 mph - N/A   Clear
1:35 PM 82.4 °F 28.4 °F 14% 30.14 in 10.0 mi South 12.7 mph 18.4 mph N/A   Clear
1:55 PM 82.4 °F 28.4 °F 14% 30.14 in 10.0 mi SSW 12.7 mph 20.7 mph N/A   Clear
2:15 PM 82.4 °F 26.6 °F 13% 30.12 in 10.0 mi SSE 8.1 mph 19.6 mph N/A   Clear
2:35 PM 82.4 °F 32.0 °F 16% 30.11 in 10.0 mi South 15.0 mph 20.7 mph N/A   Clear
2:55 PM 82.4 °F 30.2 °F 15% 30.11 in 10.0 mi South 10.4 mph 21.9 mph N/A   Clear
3:15 PM 82.4 °F 30.2 °F 15% 30.10 in 10.0 mi South 13.8 mph 19.6 mph N/A   Clear
3:35 PM 84.2 °F 32.0 °F 15% 30.09 in 10.0 mi South 8.1 mph 26.5 mph N/A   Clear
3:55 PM 84.2 °F 32.0 °F 15% 30.08 in 5.0 mi South 8.1 mph 20.7 mph N/A   Haze
4:15 PM 84.2 °F 32.0 °F 15% 30.07 in 10.0 mi South 20.7 mph - N/A   Clear
4:35 PM 84.2 °F 30.2 °F 14% 30.06 in 10.0 mi SSE 16.1 mph 26.5 mph N/A   Clear
4:55 PM 84.2 °F 30.2 °F 14% 30.06 in 10.0 mi South 20.7 mph 26.5 mph N/A   Clear
5:35 PM 84.2 °F 30.2 °F 14% 30.04 in 10.0 mi SSE 13.8 mph 24.2 mph N/A   Clear
5:55 PM 82.4 °F 30.2 °F 15% 30.04 in 10.0 mi SSE 17.3 mph 23.0 mph N/A   Clear
6:35 PM 82.4 °F 30.2 °F 15% 30.03 in 10.0 mi SSE 13.8 mph 24.2 mph N/A   Clear
6:55 PM 82.4 °F 30.2 °F 15% 30.03 in 10.0 mi SSE 13.8 mph 19.6 mph N/A   Clear
7:15 PM 80.6 °F 30.2 °F 16% 30.03 in 10.0 mi South 15.0 mph - N/A   Clear
7:35 PM 80.6 °F 32.0 °F 17% 30.02 in 10.0 mi SSE 15.0 mph - N/A   Clear
7:55 PM 78.8 °F 32.0 °F 18% 30.03 in 7.0 mi SSE 16.1 mph - N/A   Clear
8:15 PM 77.0 °F 32.0 °F 19% 30.03 in 10.0 mi SSE 12.7 mph - N/A   Clear
8:35 PM 73.4 °F 32.0 °F 22% 30.04 in 10.0 mi SSE 9.2 mph - N/A   Clear
8:55 PM 71.6 °F 32.0 °F 23% 30.04 in 10.0 mi South 10.4 mph - N/A   Clear
9:15 PM 69.8 °F 32.0 °F 25% 30.04 in 10.0 mi SE 13.8 mph - N/A   Clear
9:35 PM 71.6 °F 33.8 °F 25% 30.04 in 10.0 mi SSE 12.7 mph - N/A   Clear
9:55 PM 68.0 °F 33.8 °F 28% 30.05 in 10.0 mi SSE 11.5 mph - N/A   Clear
10:15 PM 69.8 °F 33.8 °F 27% 30.06 in 10.0 mi SSE 11.5 mph - N/A   Clear
10:35 PM 64.4 °F 33.8 °F 32% 30.06 in 10.0 mi SSE 9.2 mph - N/A   Clear
10:55 PM 64.4 °F 33.8 °F 32% 30.06 in 10.0 mi SSE 10.4 mph - N/A   Clear
11:15 PM 64.4 °F 33.8 °F 32% 30.06 in 10.0 mi SSE 11.5 mph - N/A   Clear
11:35 PM 66.2 °F 33.8 °F 30% 30.06 in 10.0 mi SSE 13.8 mph - N/A   Clear
11:55 PM 64.4 °F 33.8 °F 32% 30.06 in 10.0 mi SSE 11.5 mph - N/A   Clear